Location: Laterina
(43.5167°N, 11.7167°E)
Time: 16:39:45
(UTC+00:00)

CZ-2C R/B - Pass Details

Date: 24 September 2020
Orbit: 391 x 588 km, 35.0° (Epoch: 26 October)

Event Time Altitude Azimuth Distance (km) Brightness Sun altitude
Rises 18:02:33 0° 257° (WSW) 2,585 6.1 -11.0°
Reaches altitude 10° 18:05:37 10° 232° (SW) 1,650 4.4 -11.5°
Maximum altitude 18:07:42 14° 199° (SSW) 1,371 3.4 -11.9°
Drops below altitude 10° 18:09:43 10° 165° (SSE) 1,582 3.4 -12.3°
Enters shadow 18:10:30 - 155° (SSE) 1,771 3.6 -12.4°
